This is the latest recevied weather packets stored in our database for station/object N5UKZ-WX. If no packets are shown the sender has not sent any weather packets the latest 10 day(s).
| Time | Temp. | Humidity | Pressure | Rain* | Wind** | Luminosity | Snow |
|---|---|---|---|---|---|---|---|
| 1777501231 | 30.56° C | 59% | 1009.2 hPa | 0 mm | - | - | - |
| 1777500331 | 31.11° C | 60% | 1009.5 hPa | 0 mm | - | - | - |
| 1777499431 | 30.56° C | 62% | 1009.2 hPa | 0 mm | - | - | - |
| 1777498531 | 31.11° C | 62% | 1009.2 hPa | 0 mm | - | - | - |
| 1777497631 | 31.11° C | 61% | 1009.9 hPa | 0 mm | - | - | - |
| 1777496730 | 31.11° C | 61% | 1009.5 hPa | 0 mm | - | - | - |
| 1777495830 | 31.11° C | 61% | 1010.2 hPa | 0 mm | - | - | - |
| 1777494930 | 31.11° C | 60% | 1010.2 hPa | 0 mm | - | - | - |
| 1777494030 | 31.67° C | 60% | 1010.5 hPa | 0 mm | - | - | - |
| 1777493130 | 30.56° C | 61% | 1010.5 hPa | 0 mm | - | - | - |
| 1777492230 | 31.11° C | 62% | 1010.9 hPa | 0 mm | - | - | - |
| 1777491329 | 30° C | 65% | 1011.6 hPa | 0 mm | - | - | - |
| 1777490429 | 30° C | 65% | 1011.9 hPa | 0 mm | - | - | - |
| 1777489529 | 30.56° C | 65% | 1011.9 hPa | 0 mm | - | - | - |
| 1777488629 | 30° C | 67% | 1011.9 hPa | 0 mm | - | - | - |
| 1777487729 | 29.44° C | 70% | 1012.2 hPa | 0 mm | - | - | - |
| 1777486828 | 29.44° C | 70% | 1012.9 hPa | 0 mm | - | - | - |
| 1777485928 | 28.89° C | 71% | 1013.2 hPa | 0 mm | - | - | - |
| 1777485028 | 28.33° C | 72% | 1013.6 hPa | 0 mm | - | - | - |
| 1777484128 | 28.33° C | 73% | 1013.6 hPa | 0 mm | - | - | - |
| 1777483227 | 28.33° C | 74% | 1013.9 hPa | 0 mm | - | - | - |
| 1777482327 | 28.33° C | 75% | 1013.9 hPa | 0 mm | - | - | - |
| 1777481427 | 27.78° C | 77% | 1014.3 hPa | 0 mm | - | - | - |
| 1777480527 | 27.22° C | 78% | 1014.3 hPa | 0 mm | - | - | - |
| 1777479627 | 27.78° C | 78% | 1014.3 hPa | 0 mm | - | - | - |
* Rain latest hour (hover to see other rain measurements)
** Current wind speed in m/s (hover to see current wind gust speed)